Home   Weather   Victorville   Past weeks

Flag for USA Past Weather in Victorville, California, USA — Yesterday and Last 2 Weeks

Now
70 °F

Clear.


Feels Like: 70 °F
Forecast: 56 / 84 °F
Wind: No wind

Location: George Air Force Base / Victorvi

Current Time: Sep 28, 2016 at 3:25:32 AM

Latest Report: Sep 28, 2016 at 2:55 AM


Visibility: 10 mi

Pressure: 30.02 "Hg (27.26 "Hg at 830m altitude)

Humidity: 38%

Dew Point: 43 °F

Location of VictorvilleLocation

Past Weather in Victorville — Graph

°F

Victorville Temperature Yesterday

Maximum temperature yesterday: 90 °F (at 2:15 PM)
Minimum temperature yesterday: 57 °F (at 6:55 AM)
Average temperature yesterday: 73 °F

High & Low Weather Summary for the Past Weeks

 TemperatureHumidityPressure
High97 °F (Sep 18, 3:55 PM)88% (Sep 21, 5:55 AM)30.24 "Hg (Sep 21, 5:55 AM)
Low46 °F (Sep 14, 4:55 AM)6% (Sep 17, 6:15 PM)29.85 "Hg (Sep 13, 2:15 AM)
Average70 °F30%30.04 "Hg
* Reported Sep 13 2:15 AM — Sep 28 2:15 AM, Victorville, Weather by CustomWeather, © 2016

Note: Actual official high and low records may vary slightly from our data, if they occured in-between our weather recording intervals... More about our weather records

Advertising

Victorville Weather History for the Previous 24 Hours

Scroll right to see more
 ConditionsComfort  
Time TempWeatherWind HumidityBarometerVisibility
2:15 AM
Wed, Sep 28
72 °FPassing clouds.No wind36%30.02 "Hg10 mi
1:55 AM72 °FOvercast.No wind36%30.02 "Hg10 mi
1:35 AM73 °FPassing clouds.No wind33%30.02 "Hg10 mi
1:15 AM73 °FPassing clouds.No wind33%30.01 "Hg10 mi
12:55 AM73 °FPassing clouds.No wind33%30.01 "Hg10 mi
12:35 AM72 °FClear.No wind33%30.02 "Hg10 mi
12:15 AM72 °FClear.No wind33%30.02 "Hg10 mi
11:55 PM
Tue, Sep 27
72 °FClear.No wind36%30.02 "Hg10 mi
11:15 PM73 °FClear.No wind31%30.02 "Hg10 mi
10:55 PM73 °FClear.9 mph33%30.01 "Hg10 mi
10:35 PM73 °FClear.10 mph33%30.01 "Hg10 mi
10:15 PM75 °FClear.10 mph31%30.01 "Hg10 mi
9:55 PM75 °FClear.10 mph31%30.02 "Hg10 mi
9:35 PM75 °FClear.13 mph29%30.01 "Hg10 mi
9:15 PM79 °FClear.12 mph24%30.01 "Hg10 mi
8:55 PM79 °FClear.12 mph24%30.00 "Hg10 mi
8:35 PM79 °FClear.10 mph26%29.99 "Hg10 mi
8:15 PM79 °FClear.10 mph28%29.99 "Hg10 mi
7:55 PM79 °FClear.13 mph28%29.98 "Hg10 mi
7:15 PM81 °FClear.12 mph24%29.98 "Hg10 mi
6:55 PM81 °FClear.13 mph24%29.97 "Hg10 mi
6:35 PM81 °FSunny.15 mph24%29.98 "Hg10 mi
6:15 PM82 °FScattered clouds.14 mph23%29.97 "Hg10 mi
5:55 PM82 °FScattered clouds.15 mph23%29.97 "Hg10 mi
5:15 PM84 °FScattered clouds.15 mph20%29.97 "Hg10 mi
4:55 PM86 °FScattered clouds.10 mph19%29.96 "Hg10 mi
4:35 PM88 °FScattered clouds.10 mph17%29.97 "Hg10 mi
4:15 PM86 °FScattered clouds.9 mph18%29.97 "Hg10 mi
3:55 PM88 °FSunny.12 mph18%29.97 "Hg10 mi
3:15 PM86 °FScattered clouds.8 mph19%29.98 "Hg10 mi
2:55 PM88 °FScattered clouds.14 mph17%29.98 "Hg10 mi
2:15 PM90 °FScattered clouds.10 mph16%29.98 "Hg10 mi
1:55 PM86 °FScattered clouds.No wind19%29.99 "Hg10 mi
1:35 PM88 °FScattered clouds.No wind18%30.00 "Hg10 mi
1:15 PM88 °FScattered clouds.9 mph17%30.01 "Hg10 mi
12:55 PM84 °FScattered clouds.3 mph19%30.02 "Hg10 mi
12:35 PM84 °FScattered clouds.No wind20%30.03 "Hg10 mi
12:15 PM84 °FScattered clouds.No wind19%30.03 "Hg10 mi
11:55 AM84 °FScattered clouds.No wind16%30.04 "Hg10 mi
11:35 AM82 °FScattered clouds.No wind16%30.05 "Hg10 mi
11:15 AM81 °FScattered clouds.No wind16%30.05 "Hg10 mi
10:55 AM79 °FSunny.No wind16%30.06 "Hg10 mi
10:35 AM77 °FSunny.No wind17%30.07 "Hg10 mi
10:15 AM75 °FSunny.No wind16%30.07 "Hg10 mi
9:55 AM73 °FSunny.No wind19%30.07 "Hg10 mi
9:35 AM72 °FSunny.No wind22%30.08 "Hg10 mi
9:15 AM70 °FSunny.No wind21%30.07 "Hg10 mi
8:55 AM66 °FSunny.No wind26%30.07 "Hg10 mi
8:35 AM66 °FSunny.No wind24%30.06 "Hg10 mi
8:15 AM64 °FSunny.No wind26%30.06 "Hg10 mi
7:55 AM63 °FScattered clouds.No wind27%30.05 "Hg10 mi
7:35 AM61 °FSunny.No wind29%30.06 "Hg10 mi
7:15 AM59 °FSunny.No wind31%30.05 "Hg10 mi
6:55 AM57 °FSunny.No wind33%30.05 "Hg10 mi
6:35 AM61 °FClear.No wind29%30.04 "Hg10 mi
6:15 AM59 °FClear.No wind31%30.04 "Hg10 mi
5:55 AM61 °FClear.No wind29%30.04 "Hg10 mi
5:35 AM61 °FClear.No wind27%30.04 "Hg10 mi
5:15 AM59 °FClear.No wind29%30.03 "Hg10 mi
4:55 AM59 °FClear.No wind29%30.03 "Hg10 mi
4:35 AM61 °FClear.No wind27%30.03 "Hg10 mi
4:15 AM61 °FClear.No wind27%30.03 "Hg10 mi
3:55 AM61 °FClear.No wind27%30.03 "Hg10 mi
3:35 AM61 °FClear.No wind27%30.03 "Hg10 mi
3:15 AM59 °FClear.3 mph27%30.03 "Hg10 mi
Weather by CustomWeather, © 2016

See weather overviewHow to use our weather pages